Location: ??????????
(54.7560°N, 39.1389°E)
Time: 09:25:10
(UTC+00:00)

Cosmos 1624 Rocket - Pass Details

Date: 19 May 2025
Orbit: 753 x 779 km, 74.0° (Epoch: 13 June)

Event Time Altitude Azimuth Distance (km) Brightness Sun altitude
Rises 21:03:10 0° 333° (NNW) 3,224 8.5 -15.2°
Reaches altitude 10° 21:05:32 10° 335° (NNW) 2,297 7.6 -15.2°
Maximum altitude 21:10:45 75° 61° (ENE) 792 4.1 -15.3°
Enters shadow 21:14:37 18° 145° (SE) 1,783 5.4 -15.3°
